"Pseudo-MPEC" for C371T82

Created 2020 Sep 18 4:07:08 UT using Find_Orb

Click here for an explanation of pseudo-MPECs

 
 Astrometry: 
     C371T82  C2020 09 16.26779 23 20 23.77 +37 26 41.4    ~9G7M 21.4 GVNEOCPG96
     C371T82  C2020 09 16.27367 23 20 23.57 +37 26 40.3    ~9G7M 21.6 GVNEOCPG96
     C371T82  C2020 09 16.27955 23 20 23.31 +37 26 40.3    ~9G7M 21.4 GVNEOCPG96
     C371T82  C2020 09 16.28543 23 20 23.16 +37 26 40.2    ~9G7M 21.2 GVNEOCPG96
     C371T82  C2020 09 16.39418 23 20 18.89 +37 26 31.3    ~9G9q       VNEOCPV06
     C371T82  C2020 09 16.39735 23 20 18.73 +37 26 31.8    ~9G9q 21.3 GVNEOCPV06
     C371T82  C2020 09 16.40051 23 20 18.60 +37 26 32.0    ~9G9q       VNEOCPV06
     C371T82  C2020 09 16.40368 23 20 18.46 +37 26 31.5    ~9G9q 21.6 GVNEOCPV06

Station data:
(G96) Mt. Lemmon Survey  (N32.442754 W110.788720)  US/Arizona.  Observers T.
   A. Pruyne, B. M. Africano, E. J. Christensen, G. A. Farneth, D. C. Fuls,
   A. R. Gibbs, A. D. Grauer, H. Gröller, J. A. Johnson, R. A. Kowalski, S.
   M. Larson, G. J. Leonard, D. Rankin, R. L. Seaman, F. C. Shelly. 1.5-m
   reflector + 10K CCD.
(V06) Catalina Sky Survey-Kuiper  (N32.416847 W110.732550)  US/Arizona.
   Observers T. A. Pruyne, B. M. Africano, E. J. Christensen, G. A. Farneth,
   D. C. Fuls, A. R. Gibbs, A. D. Grauer, H. Gröller, J. A. Johnson, R. A.
   Kowalski, S. M. Larson, G. J. Leonard, D. Rankin, R. L. Seaman, F. C.
   Shelly. 1.55-m reflector + CCD.

Orbital elements:  C371T82
   Perihelion 2020 Jul 31.765152 +/- 515 TT = 18:21:49 (JD 2459062.265152)
Epoch 2020 Sep 16.0 TT = JDT 2459108.5   Earth MOID: 0.5053   AutoNEOCP
M  12.02797414 +/- 43               (J2000 ecliptic)
n   0.26014953 +/- 0.137            Peri.   52.25831 +/- 60
a   2.43026713 +/- 0.853            Node   276.81190 +/- 20
e   0.3950137 +/- 0.159             Incl.   14.39743 +/- 7
P   3.79                   H 20.7   G  0.15   U 11.5  SR
q 1.47027810 +/- 0.997    Q 3.39025616 +/- 3.71
From 8 observations 2020 Sept. 16 (3.3 hr); mean residual 0".38
Residuals in arcseconds: 
200916 G96  .36-  .40+    200916 G96  .67+  .13+    200916 V06  .13-  .48+    
200916 G96  .02+  .40-    200916 V06  .46+  .79-    200916 V06  .36-  .28+    
200916 G96  .31-  .09-    200916 V06  .01-  .01-    

Ephemerides (geocentric):
Date (UTC) HH   RA              Dec         delta   r     elong  mag " sig PA
---- -- -- --  -------------   -----------  ------ ------ -----  --- ---- ---
2020 09 18 04  23 19 21.914   +37 23 29.95  .61659 1.5312 140.4 21.8 84.8   7
2020 09 18 05  23 19 20.590   +37 23 23.97  .61666 1.5313 140.4 21.8 86.8   7
2020 09 18 06  23 19 19.266   +37 23 17.91  .61672 1.5314 140.4 21.8 88.8   7
2020 09 18 07  23 19 17.945   +37 23 11.77  .61678 1.5315 140.4 21.8 90.9   8
2020 09 18 08  23 19 16.624   +37 23 05.56  .61685 1.5316 140.5 21.8 92.9   8
2020 09 18 09  23 19 15.305   +37 22 59.27  .61691 1.5317 140.5 21.8 95.0   8
2020 09 18 10  23 19 13.988   +37 22 52.90  .61698 1.5318 140.5 21.8 97.0   9
2020 09 18 11  23 19 12.672   +37 22 46.46  .61704 1.5319 140.5 21.8 99.1   9
2020 09 18 12  23 19 11.357   +37 22 39.94  .61711 1.5320 140.5 21.8  101   9
2020 09 18 13  23 19 10.044   +37 22 33.34  .61717 1.5321 140.5 21.8  103  10
2020 09 18 14  23 19 08.733   +37 22 26.66  .61724 1.5322 140.5 21.8  105  10
2020 09 18 15  23 19 07.423   +37 22 19.91  .61730 1.5323 140.5 21.8  107  11
2020 09 18 16  23 19 06.114   +37 22 13.09  .61737 1.5324 140.5 21.8  110  11
2020 09 18 17  23 19 04.807   +37 22 06.18  .61744 1.5326 140.6 21.8  112  11
2020 09 18 18  23 19 03.502   +37 21 59.20  .61750 1.5327 140.6 21.8  114  12
2020 09 18 19  23 19 02.198   +37 21 52.15  .61757 1.5328 140.6 21.8  116  12
2020 09 18 20  23 19 00.896   +37 21 45.01  .61764 1.5329 140.6 21.8  118  12
2020 09 18 21  23 18 59.595   +37 21 37.81  .61770 1.5330 140.6 21.8  120  13
2020 09 18 22  23 18 58.296   +37 21 30.52  .61777 1.5331 140.6 21.8  123  13
2020 09 18 23  23 18 56.999   +37 21 23.16  .61784 1.5332 140.6 21.8  125  13
2020 09 19 00  23 18 55.703   +37 21 15.72  .61790 1.5333 140.6 21.8  127  14
2020 09 19 01  23 18 54.409   +37 21 08.21  .61797 1.5334 140.7 21.8  129  14
2020 09 19 02  23 18 53.116   +37 21 00.62  .61804 1.5335 140.7 21.8  132  14
2020 09 19 03  23 18 51.825   +37 20 52.96  .61811 1.5336 140.7 21.8  134  15
2020 09 19 04  23 18 50.536   +37 20 45.22  .61818 1.5337 140.7 21.8  136  15
2020 09 19 05  23 18 49.248   +37 20 37.40  .61825 1.5338 140.7 21.8  139  16
2020 09 19 06  23 18 47.962   +37 20 29.51  .61831 1.5339 140.7 21.8  141  16
2020 09 19 07  23 18 46.678   +37 20 21.55  .61838 1.5340 140.7 21.8  143  16
2020 09 19 08  23 18 45.395   +37 20 13.50  .61845 1.5341 140.7 21.8  146  17
2020 09 19 09  23 18 44.114   +37 20 05.39  .61852 1.5342 140.7 21.8  148  17
2020 09 19 10  23 18 42.834   +37 19 57.19  .61859 1.5343 140.8 21.8  150  17
2020 09 19 11  23 18 41.557   +37 19 48.93  .61866 1.5344 140.8 21.8  153  18
2020 09 19 12  23 18 40.281   +37 19 40.58  .61873 1.5345 140.8 21.8  155  18
2020 09 19 13  23 18 39.007   +37 19 32.17  .61880 1.5346 140.8 21.8  158  18
2020 09 19 14  23 18 37.734   +37 19 23.67  .61887 1.5347 140.8 21.8  160  19
2020 09 19 15  23 18 36.464   +37 19 15.11  .61894 1.5348 140.8 21.8  163  19
2020 09 19 16  23 18 35.195   +37 19 06.46  .61901 1.5349 140.8 21.8  165  19
2020 09 19 17  23 18 33.928   +37 18 57.75  .61908 1.5350 140.8 21.8  168  20
2020 09 19 18  23 18 32.662   +37 18 48.95  .61915 1.5351 140.8 21.8  170  20
2020 09 19 19  23 18 31.399   +37 18 40.09  .61923 1.5352 140.9 21.8  173  20
2020 09 19 20  23 18 30.137   +37 18 31.15  .61930 1.5353 140.9 21.8  175  21
2020 09 19 21  23 18 28.877   +37 18 22.13  .61937 1.5354 140.9 21.8  178  21
2020 09 19 22  23 18 27.618   +37 18 13.04  .61944 1.5355 140.9 21.8  181  21
2020 09 19 23  23 18 26.362   +37 18 03.88  .61951 1.5356 140.9 21.8  183  22
2020 09 20 00  23 18 25.108   +37 17 54.64  .61959 1.5357 140.9 21.8  186  22
2020 09 20 01  23 18 23.855   +37 17 45.32  .61966 1.5359 140.9 21.8  189  22
2020 09 20 02  23 18 22.604   +37 17 35.94  .61973 1.5360 140.9 21.8  191  23
2020 09 20 03  23 18 21.355   +37 17 26.48  .61980 1.5361 140.9 21.8  194  23